When you browse on this site, cookies collect data to enhance your experience and personalize the content and advertising you see.
Visit our Privacy Policy to learn more. By continuing to use the site, you agree to this use of cookies and data.
  • In Czech Republic
  • List of Countries
  • For 7 days
  • Water Temperature
  • Satellite Maps
  • Weather Map
  • Weather Widgets
  • user-avatar
    Login

    Hourly Weather Wausau

    Today, 22 April, Monday

    Time Temperature Precipitation Wind Pressure Humidity
    00:00 +6°C° 0 mm 5 mps 726 mmHg 92%
    01:00 +6°C° 1.5 mm 4 mps 726 mmHg 93%
    02:00 +6°C° 1.5 mm 4 mps 726 mmHg 94%
    03:00 +7°C° 1.5 mm 3 mps 726 mmHg 96%
    04:00 +7°C° 1 mm 3 mps 726 mmHg 96%
    05:00 +8°C° 1 mm 3 mps 726 mmHg 95%
    06:00 +8°C° 1 mm 3 mps 726 mmHg 95%
    07:00 +8°C° 0.3 mm 4 mps 726 mmHg 93%
    08:00 +10°C° 0.3 mm 4 mps 726 mmHg 91%
    09:00 +11°C° 0.3 mm 4 mps 726 mmHg 89%
    10:00 +12°C° 0.7 mm 4 mps 726 mmHg 87%
    11:00 +14°C° 0.7 mm 4 mps 726 mmHg 85%
    12:00 +15°C° 0.7 mm 4 mps 726 mmHg 82%
    13:00 +14°C° 1 mm 4 mps 725 mmHg 85%
    14:00 +13°C° 1 mm 4 mps 725 mmHg 88%
    15:00 +13°C° 1 mm 5 mps 724 mmHg 91%
    16:00 +12°C° 2 mm 5 mps 724 mmHg 92%
    17:00 +10°C° 2 mm 5 mps 723 mmHg 93%
    18:00 +9°C° 2 mm 6 mps 723 mmHg 94%
    19:00 +8°C° 0.8 mm 6 mps 723 mmHg 94%
    20:00 +7°C° 0.8 mm 6 mps 723 mmHg 94%
    21:00 +5°C° 0.8 mm 6 mps 723 mmHg 93%
    22:00 +5°C° 0.3 mm 6 mps 723 mmHg 93%
    23:00 +4°C° 0.3 mm 6 mps 723 mmHg 92%

    Tomorrow, 23 April, Tuesday

    Time Temperature Precipitation Wind Pressure Humidity
    00:00 +4°C° 0.3 mm 6 mps 723 mmHg 91%
    01:00 +4°C° 0.5 mm 6 mps 723 mmHg 91%
    02:00 +3°C° 0.5 mm 6 mps 724 mmHg 90%
    03:00 +3°C° 0.5 mm 6 mps 724 mmHg 90%
    04:00 +3°C° 0 mm 6 mps 725 mmHg 89%
    05:00 +3°C° 0 mm 6 mps 725 mmHg 89%
    06:00 +3°C° 0 mm 6 mps 726 mmHg 88%
    07:00 +4°C° 0 mm 6 mps 726 mmHg 83%
    08:00 +5°C° 0 mm 6 mps 727 mmHg 78%
    09:00 +7°C° 0 mm 6 mps 728 mmHg 73%
    10:00 +9°C° 0 mm 6 mps 728 mmHg 65%
    11:00 +12°C° 0 mm 5 mps 728 mmHg 57%
    12:00 +14°C° 0 mm 5 mps 728 mmHg 49%
    13:00 +14°C° 0 mm 5 mps 728 mmHg 47%
    14:00 +15°C° 0 mm 5 mps 727 mmHg 45%
    15:00 +15°C° 0 mm 4 mps 727 mmHg 43%
    16:00 +14°C° 0 mm 3 mps 727 mmHg 49%
    17:00 +14°C° 0 mm 2 mps 727 mmHg 55%
    18:00 +13°C° 0 mm 2 mps 727 mmHg 61%
    19:00 +11°C° 0 mm 1 mps 727 mmHg 62%
    20:00 +9°C° 0 mm 1 mps 727 mmHg 64%
    21:00 +7°C° 0 mm 1 mps 727 mmHg 65%
    22:00 +7°C° 0 mm 1 mps 727 mmHg 65%
    23:00 +6°C° 0 mm 1 mps 727 mmHg 65%

    Day after tomorrow, 24 April, Wednesday

    Time Temperature Precipitation Wind Pressure Humidity
    00:00 +6°C° 0 mm 1 mps 727 mmHg 65%
    01:00 +6°C° 0 mm 1 mps 727 mmHg 69%
    02:00 +5°C° 0 mm 1 mps 727 mmHg 72%
    03:00 +5°C° 0 mm 1 mps 726 mmHg 75%
    04:00 +4°C° 0 mm 2 mps 726 mmHg 78%
    05:00 +5°C° 0 mm 2 mps 726 mmHg 80%
    06:00 +5°C° 0 mm 2 mps 726 mmHg 83%
    07:00 +8°C° 0 mm 3 mps 726 mmHg 77%
    08:00 +11°C° 0 mm 4 mps 726 mmHg 70%
    09:00 +13°C° 0 mm 5 mps 725 mmHg 64%
    10:00 +15°C° 0 mm 5 mps 725 mmHg 60%
    11:00 +16°C° 0 mm 6 mps 724 mmHg 57%
    12:00 +19°C° 0 mm 6 mps 724 mmHg 53%
    13:00 +19°C° 0 mm 6 mps 723 mmHg 54%
    14:00 +20°C° 0 mm 7 mps 723 mmHg 54%
    15:00 +20°C° 0 mm 7 mps 722 mmHg 54%
    16:00 +19°C° 0 mm 6 mps 722 mmHg 60%
    17:00 +17°C° 0 mm 5 mps 722 mmHg 66%
    18:00 +17°C° 0 mm 4 mps 721 mmHg 73%
    19:00 +14°C° 0 mm 3 mps 721 mmHg 77%
    20:00 +13°C° 0 mm 3 mps 721 mmHg 81%
    21:00 +12°C° 0 mm 3 mps 721 mmHg 85%
    22:00 +12°C° 0 mm 3 mps 721 mmHg 85%
    23:00 +11°C° 0 mm 3 mps 721 mmHg 86%

    25 April, Thursday

    Time Temperature Precipitation Wind Pressure Humidity
    00:00 +11°C° 0 mm 3 mps 721 mmHg 86%
    01:00 +11°C° 0.1 mm 3 mps 721 mmHg 88%
    02:00 +10°C° 0.1 mm 2 mps 721 mmHg 90%
    03:00 +10°C° 0.1 mm 2 mps 721 mmHg 92%
    04:00 +10°C° 0.8 mm 2 mps 721 mmHg 93%
    05:00 +10°C° 0.8 mm 2 mps 722 mmHg 94%
    06:00 +12°C° 0.8 mm 2 mps 722 mmHg 95%
    07:00 +12°C° 1.5 mm 2 mps 722 mmHg 93%
    08:00 +12°C° 1.5 mm 1 mps 723 mmHg 92%
    09:00 +12°C° 1.5 mm 1 mps 723 mmHg 91%
    10:00 +12°C° 0.2 mm 1 mps 723 mmHg 87%
    11:00 +13°C° 0.2 mm 2 mps 723 mmHg 83%
    12:00 +13°C° 0.2 mm 3 mps 724 mmHg 79%
    13:00 +14°C° 0 mm 3 mps 724 mmHg 68%
    14:00 +16°C° 0 mm 3 mps 724 mmHg 57%
    15:00 +18°C° 0 mm 4 mps 725 mmHg 46%
    16:00 +17°C° 0 mm 3 mps 725 mmHg 48%
    17:00 +14°C° 0 mm 3 mps 725 mmHg 50%
    18:00 +13°C° 0 mm 3 mps 725 mmHg 52%
    19:00 +12°C° 0 mm 2 mps 725 mmHg 50%
    20:00 +10°C° 0 mm 1 mps 725 mmHg 48%
    21:00 +9°C° 0 mm 1 mps 726 mmHg 45%
    22:00 +8°C° 0 mm 1 mps 726 mmHg 48%
    23:00 +7°C° 0 mm 2 mps 726 mmHg 50%

    26 April, Friday

    Time Temperature Precipitation Wind Pressure Humidity
    00:00 +7°C° 0 mm 3 mps 726 mmHg 53%
    01:00 +5°C° 0 mm 3 mps 726 mmHg 57%
    02:00 +5°C° 0 mm 3 mps 727 mmHg 60%
    03:00 +5°C° 0 mm 3 mps 727 mmHg 64%
    04:00 +4°C° 0 mm 3 mps 727 mmHg 62%
    05:00 +4°C° 0 mm 3 mps 728 mmHg 59%
    06:00 +4°C° 0 mm 3 mps 728 mmHg 57%
    07:00 +7°C° 0 mm 3 mps 729 mmHg 51%
    08:00 +8°C° 0 mm 4 mps 729 mmHg 44%
    09:00 +11°C° 0 mm 4 mps 730 mmHg 37%
    10:00 +12°C° 0 mm 4 mps 730 mmHg 36%
    11:00 +13°C° 0 mm 4 mps 730 mmHg 35%
    12:00 +14°C° 0 mm 5 mps 730 mmHg 34%
    13:00 +14°C° 0 mm 4 mps 729 mmHg 34%
    14:00 +15°C° 0 mm 4 mps 729 mmHg 35%
    15:00 +15°C° 0 mm 4 mps 729 mmHg 35%
    16:00 +14°C° 0 mm 3 mps 729 mmHg 41%
    17:00 +14°C° 0 mm 2 mps 729 mmHg 47%
    18:00 +13°C° 0 mm 1 mps 729 mmHg 53%
    19:00 +11°C° 0 mm 1 mps 729 mmHg 53%
    20:00 +8°C° 0 mm 2 mps 729 mmHg 53%
    21:00 +7°C° 0 mm 2 mps 729 mmHg 53%
    22:00 +7°C° 0 mm 3 mps 728 mmHg 50%
    23:00 +5°C° 0 mm 3 mps 728 mmHg 48%

    27 April, Saturday

    Time Temperature Precipitation Wind Pressure Humidity
    00:00 +5°C° 0 mm 4 mps 728 mmHg 45%
    01:00 +5°C° 0.1 mm 5 mps 727 mmHg 48%
    02:00 +5°C° 0.1 mm 5 mps 727 mmHg 50%
    03:00 +3°C° 0.1 mm 6 mps 726 mmHg 53%
    04:00 +3°C° 1 mm 6 mps 726 mmHg 62%
    05:00 +2°C° 1 mm 7 mps 725 mmHg 71%
    06:00 0°C° 1 mm 7 mps 725 mmHg 80%
    07:00 0°C° 3 mm 8 mps 724 mmHg 84%
    08:00 0°C° 3 mm 9 mps 723 mmHg 88%
    09:00 0°C° 3 mm 9 mps 722 mmHg 92%
    10:00 0°C° 1.3 mm 9 mps 721 mmHg 92%
    11:00 +1°C° 1.3 mm 8 mps 720 mmHg 93%
    12:00 +1°C° 1.3 mm 8 mps 719 mmHg 93%
    13:00 +2°C° 0.8 mm 8 mps 718 mmHg 93%
    14:00 +4°C° 0.8 mm 8 mps 718 mmHg 93%
    15:00 +5°C° 0.8 mm 8 mps 717 mmHg 93%
    16:00 +7°C° 0.5 mm 6 mps 716 mmHg 94%
    17:00 +8°C° 0.5 mm 5 mps 716 mmHg 95%
    18:00 +10°C° 0.5 mm 4 mps 716 mmHg 96%
    19:00 +8°C° 0.1 mm 5 mps 716 mmHg 92%
    20:00 +8°C° 0.1 mm 5 mps 716 mmHg 89%
    21:00 +7°C° 0.1 mm 6 mps 717 mmHg 86%
    22:00 +5°C° 0 mm 5 mps 717 mmHg 86%
    23:00 +2°C° 0 mm 5 mps 717 mmHg 86%
    Show more